TimeEST,TemperatureF,Dew PointF,Humidity,Sea Level PressureIn,VisibilityMPH,Wind Direction,Wind SpeedMPH,Gust SpeedMPH,PrecipitationIn,Events,Conditions,WindDirDegrees,DateUTC
12:16 AM,-11.2,-16.6,77,30.07,10.0,Calm,Calm,-,N/A,,Clear,0,2013-02-17 05:16:00
12:36 AM,-11.2,-16.6,77,30.07,10.0,Calm,Calm,-,N/A,,Clear,0,2013-02-17 05:36:00
12:56 AM,-9.4,-14.8,77,30.07,10.0,Calm,Calm,-,N/A,,Clear,0,2013-02-17 05:56:00
1:37 AM,-13.0,-18.4,77,30.07,10.0,Calm,Calm,-,N/A,,Clear,0,2013-02-17 06:37:00
2:16 AM,-18.4,-23.8,76,30.06,10.0,Calm,Calm,-,N/A,,Clear,0,2013-02-17 07:16:00
3:36 AM,-16.6,-22.0,76,30.07,10.0,Calm,Calm,-,N/A,,Clear,0,2013-02-17 08:36:00
3:56 AM,-11.2,-16.6,77,30.07,10.0,Calm,Calm,-,N/A,,Clear,0,2013-02-17 08:56:00
4:36 AM,-11.2,-16.6,77,30.08,10.0,Calm,Calm,-,N/A,,Scattered Clouds,0,2013-02-17 09:36:00
4:56 AM,-11.2,-16.6,77,30.08,10.0,Calm,Calm,-,N/A,,Mostly Cloudy,0,2013-02-17 09:56:00
5:16 AM,-14.8,-18.4,84,30.08,10.0,Calm,Calm,-,N/A,,Mostly Cloudy,0,2013-02-17 10:16:00
5:36 AM,-14.8,-20.2,77,30.08,10.0,Calm,Calm,-,N/A,,Mostly Cloudy,0,2013-02-17 10:36:00
5:56 AM,-11.2,-16.6,77,30.08,10.0,Calm,Calm,-,N/A,,Overcast,0,2013-02-17 10:56:00
6:16 AM,-11.2,-16.6,77,30.08,10.0,Calm,Calm,-,N/A,,Mostly Cloudy,0,2013-02-17 11:16:00
6:36 AM,-9.4,-14.8,77,30.09,10.0,Calm,Calm,-,N/A,,Overcast,0,2013-02-17 11:36:00
6:56 AM,-9.4,-14.8,77,30.09,10.0,Calm,Calm,-,N/A,,Overcast,0,2013-02-17 11:56:00
7:16 AM,-5.8,-11.2,77,30.10,10.0,WNW,3.5,-,N/A,,Overcast,290,2013-02-17 12:16:00
7:37 AM,-4.0,-9.4,78,30.10,10.0,Calm,Calm,-,N/A,,Overcast,0,2013-02-17 12:37:00
7:56 AM,-4.0,-9.4,78,30.11,10.0,Calm,Calm,-,N/A,,Overcast,0,2013-02-17 12:56:00
8:16 AM,-2.2,-5.8,85,30.11,10.0,Calm,Calm,-,N/A,,Overcast,0,2013-02-17 13:16:00
8:36 AM,1.4,-2.2,85,30.11,10.0,Calm,Calm,-,N/A,,Overcast,0,2013-02-17 13:36:00
8:56 AM,3.2,-0.4,85,30.11,7.0,Calm,Calm,-,N/A,,Overcast,0,2013-02-17 13:56:00
9:16 AM,5.0,3.2,92,30.11,5.0,Calm,Calm,-,N/A,,Overcast,0,2013-02-17 14:16:00
9:38 AM,6.8,5.0,92,30.11,7.0,Calm,Calm,-,N/A,,Overcast,0,2013-02-17 14:38:00
9:56 AM,8.6,5.0,85,30.12,10.0,West,3.5,-,N/A,,Overcast,260,2013-02-17 14:56:00
10:16 AM,8.6,5.0,85,30.12,4.0,WSW,3.5,-,N/A,,Overcast,250,2013-02-17 15:16:00
10:36 AM,10.4,6.8,85,30.13,7.0,WSW,3.5,-,N/A,,Overcast,250,2013-02-17 15:36:00
10:56 AM,10.4,5.0,79,30.13,7.0,WSW,4.6,-,N/A,,Overcast,250,2013-02-17 15:56:00
11:16 AM,14.0,6.8,73,30.13,7.0,Calm,Calm,-,N/A,,Overcast,0,2013-02-17 16:16:00
11:36 AM,14.0,6.8,73,30.13,7.0,Calm,Calm,-,N/A,,Overcast,0,2013-02-17 16:36:00
1:37 PM,17.6,8.6,68,30.11,10.0,Calm,Calm,-,N/A,,Overcast,0,2013-02-17 18:37:00
2:16 PM,19.4,5.0,54,30.10,10.0,West,8.1,-,N/A,,Overcast,260,2013-02-17 19:16:00
2:36 PM,17.6,5.0,58,30.10,10.0,WNW,6.9,-,N/A,,Overcast,290,2013-02-17 19:36:00
2:59 PM,19.4,5.0,54,30.09,10.0,West,8.1,-,N/A,,Overcast,270,2013-02-17 19:59:00
3:16 PM,17.6,6.8,63,30.10,10.0,West,8.1,-,N/A,,Overcast,280,2013-02-17 20:16:00
3:36 PM,17.6,5.0,58,30.10,10.0,West,5.8,-,N/A,,Overcast,270,2013-02-17 20:36:00
3:56 PM,17.6,5.0,58,30.10,10.0,West,6.9,-,N/A,,Overcast,260,2013-02-17 20:56:00
4:16 PM,17.6,6.8,63,30.10,10.0,WNW,8.1,-,N/A,,Overcast,290,2013-02-17 21:16:00
4:36 PM,17.6,5.0,58,30.09,10.0,West,8.1,-,N/A,,Overcast,280,2013-02-17 21:36:00
4:56 PM,17.6,5.0,58,30.09,10.0,WNW,6.9,-,N/A,,Overcast,290,2013-02-17 21:56:00
5:16 PM,17.6,5.0,58,30.10,10.0,West,5.8,-,N/A,,Overcast,270,2013-02-17 22:16:00
5:38 PM,17.6,6.8,63,30.10,10.0,West,4.6,-,N/A,,Overcast,270,2013-02-17 22:38:00
5:56 PM,17.6,6.8,63,30.09,10.0,Calm,Calm,-,N/A,,Overcast,0,2013-02-17 22:56:00
6:16 PM,17.6,6.8,63,30.09,10.0,Calm,Calm,-,N/A,,Overcast,0,2013-02-17 23:16:00
6:36 PM,17.6,6.8,63,30.09,10.0,Calm,Calm,-,N/A,,Overcast,0,2013-02-17 23:36:00
6:56 PM,15.8,6.8,68,30.09,10.0,Calm,Calm,-,N/A,,Overcast,0,2013-02-17 23:56:00
7:16 PM,15.8,6.8,68,30.09,10.0,Calm,Calm,-,N/A,,Mostly Cloudy,0,2013-02-18 00:16:00
7:38 PM,10.4,5.0,79,30.08,10.0,Calm,Calm,-,N/A,,Mostly Cloudy,0,2013-02-18 00:38:00
7:57 PM,8.6,5.0,85,30.08,10.0,Calm,Calm,-,N/A,,Scattered Clouds,0,2013-02-18 00:57:00
8:17 PM,8.6,5.0,85,30.08,7.0,Calm,Calm,-,N/A,,Clear,0,2013-02-18 01:17:00
8:36 PM,1.4,-2.2,85,30.09,7.0,Calm,Calm,-,N/A,,Clear,0,2013-02-18 01:36:00
8:56 PM,1.4,-0.4,92,30.09,10.0,Calm,Calm,-,N/A,,Clear,0,2013-02-18 01:56:00
9:16 PM,-2.2,-5.8,85,30.09,10.0,Calm,Calm,-,N/A,,Clear,0,2013-02-18 02:16:00
9:36 PM,-2.2,-5.8,85,30.09,10.0,Calm,Calm,-,N/A,,Clear,0,2013-02-18 02:36:00
9:56 PM,-2.2,-5.8,85,30.08,10.0,Calm,Calm,-,N/A,,Clear,0,2013-02-18 02:56:00
10:16 PM,-0.4,-4.0,85,30.09,10.0,Calm,Calm,-,N/A,,Clear,0,2013-02-18 03:16:00
10:36 PM,-2.2,-5.8,85,30.09,10.0,Calm,Calm,-,N/A,,Clear,0,2013-02-18 03:36:00
10:56 PM,-2.2,-5.8,85,30.09,10.0,Calm,Calm,-,N/A,,Clear,0,2013-02-18 03:56:00
11:16 PM,-2.2,-5.8,85,30.08,10.0,Calm,Calm,-,N/A,,Clear,0,2013-02-18 04:16:00
11:36 PM,-2.2,-7.6,78,30.08,10.0,Calm,Calm,-,N/A,,Clear,0,2013-02-18 04:36:00
11:56 PM,-2.2,-5.8,85,30.08,10.0,Calm,Calm,-,N/A,,Clear,0,2013-02-18 04:56:00